Aurora, NE

12:59 PM CDT on June 26, 2017 (GMT -0500)
Aurora Municipal

Weather History for KAUH - October, 2013

Change the Weather History Date:

Monday, October 14, 2013

  Actual Average Record
Temperature  
Mean Temperature 54 °F -  
Max Temperature 61 °F 68 °F 89 °F (1975)
Min Temperature 48 °F 40 °F 26 °F (1969)
Degree Days  
Heating Degree Days 10    
Growing Degree Days 4 (Base 50)    
Moisture  
Dew Point 50 °F    
Average Humidity 87    
Maximum Humidity 100    
Minimum Humidity 42    
Precipitation  
Precipitation 1.47 in - - ()
Sea Level Pressure  
Sea Level Pressure 29.93 in    
Wind  
Wind Speed 15 mph (SSE)    
Max Wind Speed 25 mph    
Max Gust Speed 31 mph    
Visibility 8 miles    
Events Rain , Thunderstorm    
Averages and records for this station are not official NWS values.
T = Trace of Precipitation, MM = Missing Value Source: NWS Daily Summary

Daily Weather History Graph

Daily Weather History Graph

Search for Another Location

Airport or City:

Trip Planner

Search our weather history database for the weather conditions in past years. The results will help you decide how hot, cold, wet, or windy it might be!

Date:

Astronomy

Oct. 14, 2013 Rise Set
Actual Time 7:42 AM CDT 6:52 PM CDT
Civil Twilight 7:14 AM CDT 7:20 PM CDT
Nautical Twilight 6:43 AM CDT 7:51 PM CDT
Astronomical Twilight 6:11 AM CDT 8:23 PM CDT
Moon 4:24 PM CDT (10/14) 2:58 AM CDT (10/14)
Length of Visible Light 12h 05m
Length of Day
11h 10m
Waxing Gibbous, 79% of the Moon is Illuminated
Oct 14
Waxing Gibbous
Oct 18
Full
Oct 26
Last Quarter
Nov 3
New
Nov 9
First Quarter

Hourly Weather History & Observations

Time (CDT) Temp. Dew Point Humidity Pressure Visibility Wind Dir Wind Speed Gust Speed Precip Events Conditions
12:15 AM 57.2 °F 37.0 °F 47% 30.20 in 10.0 mi SE 16.1 mph 21.9 mph N/A   Scattered Clouds
12:35 AM 57.2 °F 37.2 °F 47% 30.20 in 10.0 mi SE 13.8 mph 19.6 mph N/A   Scattered Clouds
12:55 AM 57.6 °F 36.9 °F 46% 30.19 in 10.0 mi SE 15.0 mph - N/A   Overcast
1:15 AM 58.3 °F 36.1 °F 44% 30.19 in 10.0 mi SE 15.0 mph 21.9 mph N/A   Overcast
1:35 AM 58.5 °F 35.6 °F 42% 30.19 in 10.0 mi SE 15.0 mph 21.9 mph N/A   Overcast
1:55 AM 58.1 °F 35.8 °F 43% 30.18 in 10.0 mi SE 16.1 mph 23.0 mph N/A   Overcast
2:15 AM 57.6 °F 35.6 °F 44% 30.18 in 10.0 mi SSE 15.0 mph 24.2 mph N/A   Overcast
2:35 AM 54.7 °F 40.1 °F 58% 30.17 in 10.0 mi SSE 11.5 mph - N/A Rain Light Rain
2:55 AM 54.0 °F 40.8 °F 61% 30.16 in 7.0 mi SSE 8.1 mph - 0.05 in Rain Heavy Rain
3:15 AM 54.5 °F 39.9 °F 58% 30.15 in 10.0 mi SSE 9.2 mph 16.1 mph N/A   Overcast
3:35 AM 54.9 °F 39.4 °F 56% 30.14 in 10.0 mi SSE 13.8 mph - N/A Thunderstorm Thunderstorm
3:55 AM 52.7 °F 42.8 °F 69% 30.15 in 10.0 mi South 8.1 mph - 0.05 in Rain , Thunderstorm Heavy Thunderstorms and Rain
4:15 AM 49.6 °F 45.5 °F 86% 30.13 in 2.5 mi SSW 6.9 mph - 0.29 in Rain , Thunderstorm Light Thunderstorms and Rain
4:35 AM 50.7 °F 46.2 °F 85% 30.13 in 10.0 mi SSE 8.1 mph - 0.31 in Rain , Thunderstorm Thunderstorms and Rain
4:55 AM 50.0 °F 47.3 °F 90% 30.12 in 7.0 mi SE 10.4 mph - 0.39 in Rain , Thunderstorm Heavy Thunderstorms and Rain
5:15 AM 50.0 °F 46.8 °F 89% 30.10 in 10.0 mi SSE 16.1 mph 20.7 mph 0.16 in Rain , Thunderstorm Light Thunderstorms and Rain
5:35 AM 49.8 °F 47.3 °F 91% 30.11 in 7.0 mi SSE 12.7 mph - 0.20 in Rain Heavy Rain
5:55 AM 49.5 °F 47.8 °F 94% 30.09 in 10.0 mi SE 12.7 mph - 0.20 in Thunderstorm Thunderstorm
6:15 AM 49.3 °F 47.8 °F 95% 30.10 in 5.0 mi SE 9.2 mph - 0.06 in Rain Light Rain
6:35 AM 49.6 °F 48.4 °F 95% 30.09 in 10.0 mi SE 10.4 mph 17.3 mph 0.06 in Thunderstorm Overcast
6:55 AM 49.5 °F 48.2 °F 95% 30.08 in 10.0 mi SE 12.7 mph - 0.06 in   Mostly Cloudy
7:15 AM 49.3 °F 48.2 °F 96% 30.07 in 7.0 mi SE 12.7 mph 17.3 mph 0.02 in Rain Light Rain
7:35 AM 48.9 °F 48.0 °F 97% 30.06 in 5.0 mi SE 6.9 mph 18.4 mph 0.07 in Rain , Thunderstorm Thunderstorms and Rain
7:55 AM 48.7 °F 47.8 °F 97% 30.04 in 10.0 mi SE 11.5 mph - 0.09 in Rain Light Rain
8:15 AM 48.9 °F 47.8 °F 96% 30.03 in 7.0 mi ESE 15.0 mph 18.4 mph 0.03 in Rain Light Rain
8:35 AM 48.6 °F 47.7 °F 97% 30.03 in 10.0 mi ESE 9.2 mph - 0.04 in Rain , Thunderstorm Light Thunderstorms and Rain
8:55 AM 48.4 °F 48.2 °F 99% 30.04 in 5.0 mi SE 8.1 mph - 0.10 in Rain Light Rain
9:15 AM 48.2 °F 48.2 °F 100% 30.00 in 4.0 mi ESE 13.8 mph - 0.14 in Rain , Thunderstorm Heavy Thunderstorms and Rain
9:35 AM 48.6 °F 48.6 °F 100% 30.00 in 10.0 mi SE 13.8 mph - 0.18 in Rain Light Rain
9:55 AM 49.1 °F 49.1 °F 100% 29.98 in 7.0 mi ESE 13.8 mph - 0.23 in Rain Light Rain
10:15 AM 50.4 °F 50.0 °F 99% 29.97 in 10.0 mi SE 15.0 mph - N/A Rain , Thunderstorm Light Thunderstorms and Rain
10:35 AM 51.3 °F 50.4 °F 97% 29.96 in 10.0 mi SE 16.1 mph 20.7 mph N/A Thunderstorm Overcast
10:55 AM 52.0 °F 51.1 °F 97% 29.95 in 10.0 mi SE 15.0 mph - N/A Thunderstorm Overcast
11:15 AM 52.7 °F 52.0 °F 97% 29.93 in 10.0 mi SE 15.0 mph 20.7 mph N/A Thunderstorm Overcast
11:35 AM 54.0 °F 53.6 °F 99% 29.92 in 10.0 mi SE 13.8 mph 19.6 mph N/A   Overcast
11:55 AM 55.4 °F 54.7 °F 97% 29.90 in 10.0 mi SSE 17.3 mph 23.0 mph N/A   Overcast
12:15 PM 55.9 °F 55.6 °F 99% 29.87 in 7.0 mi SSE 20.7 mph 24.2 mph 0.02 in Rain , Thunderstorm Light Thunderstorms and Rain
12:35 PM 56.3 °F 55.9 °F 99% 29.86 in 10.0 mi SSE 19.6 mph 27.6 mph 0.02 in Thunderstorm Overcast
12:55 PM 57.2 °F 56.3 °F 97% 29.84 in 10.0 mi SSE 19.6 mph 23.0 mph 0.02 in Thunderstorm Overcast
1:15 PM 57.2 °F 56.1 °F 96% 29.83 in 10.0 mi SSE 18.4 mph 28.8 mph N/A Thunderstorm Overcast
1:35 PM 57.4 °F 56.3 °F 96% 29.82 in 10.0 mi SSE 19.6 mph 31.1 mph N/A   Overcast
1:55 PM 56.8 °F 55.8 °F 96% 29.81 in 10.0 mi SSE 23.0 mph 28.8 mph N/A Thunderstorm Overcast
2:15 PM 56.7 °F 56.3 °F 99% 29.79 in 10.0 mi SSE 21.9 mph 26.5 mph N/A Thunderstorm Thunderstorm
2:35 PM 56.8 °F 56.5 °F 99% 29.77 in 7.0 mi SSE 23.0 mph 31.1 mph N/A   Overcast
2:55 PM 57.4 °F 57.2 °F 99% 29.76 in 7.0 mi SSE 19.6 mph 31.1 mph N/A   Overcast
3:15 PM 58.3 °F 58.3 °F 100% 29.75 in 7.0 mi SSE 18.4 mph 28.8 mph N/A   Light Drizzle
3:35 PM 59.0 °F 59.0 °F 100% 29.73 in 2.0 mi SSE 24.2 mph 27.6 mph 0.09 in Rain , Thunderstorm Heavy Thunderstorms and Rain
3:55 PM 59.5 °F 59.5 °F 100% 29.73 in 4.0 mi SSE 16.1 mph 26.5 mph 0.11 in Rain , Thunderstorm Rain
4:15 PM 59.9 °F 59.9 °F 100% 29.73 in 4.0 mi SSE 15.0 mph 21.9 mph 0.03 in Rain , Thunderstorm Light Thunderstorms and Rain
4:35 PM 60.1 °F 60.1 °F 100% 29.73 in 7.0 mi SSE 13.8 mph - 0.03 in Rain , Thunderstorm Light Thunderstorms and Rain
4:55 PM 60.1 °F 60.1 °F 100% 29.72 in 5.0 mi SSE 12.7 mph 16.1 mph 0.03 in   Overcast
5:15 PM 60.8 °F 60.8 °F 100% 29.73 in 5.0 mi South 8.1 mph - N/A Thunderstorm Overcast
5:35 PM 61.0 °F 61.0 °F 100% 29.75 in 4.0 mi South 11.5 mph 16.1 mph 0.02 in Rain Rain
5:55 PM 61.2 °F 61.2 °F 100% 29.70 in 4.0 mi SSE 16.1 mph 21.9 mph 0.09 in Rain Rain
6:15 PM 61.0 °F 61.0 °F 100% 29.68 in 7.0 mi SSE 20.7 mph 28.8 mph 0.05 in Rain , Thunderstorm Light Thunderstorms and Rain
6:35 PM 61.2 °F 60.4 °F 97% 29.70 in 10.0 mi South 15.0 mph 24.2 mph 0.05 in Thunderstorm Mostly Cloudy
6:55 PM 59.7 °F 57.2 °F 91% 29.70 in 10.0 mi South 15.0 mph 23.0 mph 0.05 in Thunderstorm Scattered Clouds
7:15 PM 59.0 °F 57.2 °F 94% 29.72 in 10.0 mi South 11.5 mph - N/A   Clear
7:35 PM 58.3 °F 57.2 °F 96% 29.72 in 10.0 mi SSW 12.7 mph - N/A   Clear
7:55 PM 57.7 °F 57.4 °F 99% 29.73 in 10.0 mi SSW 15.0 mph - N/A   Clear
8:15 PM 58.1 °F 57.4 °F 97% 29.74 in 10.0 mi SW 21.9 mph 26.5 mph N/A   Mostly Cloudy
8:35 PM 57.6 °F 53.8 °F 87% 29.76 in 10.0 mi West 20.7 mph 27.6 mph N/A   Overcast
8:55 PM 55.2 °F 51.8 °F 88% 29.78 in 10.0 mi West 19.6 mph 26.5 mph N/A   Mostly Cloudy
9:15 PM 54.5 °F 51.3 °F 89% 29.79 in 10.0 mi West 13.8 mph 18.4 mph N/A   Overcast
9:35 PM 52.9 °F 49.3 °F 88% 29.79 in 10.0 mi West 21.9 mph 29.9 mph N/A   Overcast
9:55 PM 52.3 °F 48.7 °F 88% 29.80 in 10.0 mi West 16.1 mph 24.2 mph N/A   Mostly Cloudy
10:15 PM 52.3 °F 47.8 °F 85% 29.81 in 10.0 mi West 18.4 mph 25.3 mph N/A   Overcast
10:35 PM 52.7 °F 47.1 °F 81% 29.82 in 10.0 mi West 23.0 mph 27.6 mph N/A   Overcast
10:55 PM 51.8 °F 45.9 °F 80% 29.84 in 10.0 mi WNW 18.4 mph 28.8 mph N/A   Overcast
11:15 PM 51.3 °F 45.5 °F 81% 29.84 in 10.0 mi WNW 16.1 mph 23.0 mph N/A   Overcast
11:35 PM 50.5 °F 44.4 °F 80% 29.84 in 10.0 mi WNW 19.6 mph 29.9 mph N/A   Overcast
11:55 PM 50.0 °F 43.9 °F 79% 29.86 in 10.0 mi WNW 25.3 mph 31.1 mph N/A   Overcast